map of STN home
STN - Airport
Location
City:  London, Essex, England, United Kingdom
Name:Stansted Airport
ICAO:EGSS
IATA:STN

Details
Type:Airport (Aerodrome, Airfield)
Use:Public/Civil, International (customs port of entry)
Latitude:5153'06"N (51.885000)
Longitude:014'06"E (0.235000)
Elevation:348 ft (106 m)
Variation:0.25W (WMM2015 magnetic declination)
0.15 annual change
Runways:1
Longest:10003 × 151 ft (3049 × 46 m), paved

Time
Time Zone:UTC+0 (DST+1)
Local Time:

Weather
METAR:EGSS 231350Z AUTO 32013KT 9999 FEW028 BKN033 11/05 Q1019
TAF:EGSS 231100Z 2312/2418 34012KT 9999 FEW035
TEMPO 2313/2318 33015G25KT

Related Locations
Nearby:
Farthest:CHT: 11852 mi / 19074 km
Waitangi [Tuuta], CIT, NZ

Find:

   beyond  
but within

Other Information
Maps:
NOTAMs:
Links:
Sources:

  
  • flag of United Kingdom
  • flag of England
  • flag of Essex
  

Airport Diagram

Airport diagram for STN

Airport diagram PDF

Sectional Chart

Flight Planning
at skyvector.com

Satellite Image

Google Maps Satellite view

 

Copyright © 2004-2018 Karl L. Swartz. All rights reserved.
The Great Circle Mapper name and logo are trademarks of the Great Circle Mapper.
All other trademarks mentioned herein belong to their respective owners.
Please see credits for attibutions and further copyright information.

  Follow gcmap on Facebook Follow gcmap on Twitter Follow gcmap on Google+ GCmap on LinkedIn

hCard Microformat

Geo Microformat